CERISE

Satellite information

Favourite Embed

Satellite Type and Status

PAYLOADIN ORBIT

Key statistics

Satellite CERISE at a glance.

Uptime

10901

Days in orbit

Revolutions

≈ 15.2

Per day

Orbit

SSO

Sun Synchronous Orbit

Inclination

98.3

Latest

Satellite identification and parameters

Extended collection of information and parameters for CERISE.

Object identification

Identified? True

Debris? False

Object name: CERISE

International designator: 1995-033B

Object number (NORAD): 23606

Object ID (CCSDS): 23606

Country: FRANCE (FR)

Current information (Y/N): Y

RCS size: MEDIUM

Orbital parameters

Period: 94.633 minutes

Inclination: 98.3229 deg

SMA: 6878.97 km

Apoapsis: 506.395 km

Periapsis: 495.275 km

RAAN: 295.9794 deg

Eccentricy: 0.0008083

Argument of periapsis: 176.4169 deg

Mean anomaly: 183.7124 deg

Mean motion: 15.21660098 rev/day

Mean motion (dot): 0.00013472 rev/day2

B* drag term: 0.00059845 1/REarth

Two-line elements (TLE)

Creation date: May 11, 2025, 2:40 a.m.

Reference frame: TEME

Reference center: EARTH

Epoch: May 10, 2025, 8:40 p.m. UTC

TLE line 0: 0 CERISE

TLE line 1: 1 23606U 95033B 25130.86175165 .00013472 00000-0 59845-3 0 9998

TLE line 2: 2 23606 98.3229 295.9794 0008083 176.4169 183.7124 15.21660098618458

Live tracking on map

Real-time ground track for satellite CERISE.

In-orbit conjunctions

A list of the most updated potential collisions computed for object CERISE.

Target Orbit TCA Probability of collision Miss distance Type
PEGASUS DEB LEO 2025-02-15 00:58:19 0.0003091154 409.0 (m) DEBRIS

Associated space launch

The Helios program is Europe's military optical reconnaissance system consisting of both a space and a ground segment, which commenced service in 1995, jointly funded by the French, Italian and Spanish governments. The Helios I optical observation satellites, launched in July 1995 and December 1999 respectively, can acquire high resolution images of any point on the globe, with daily revisit capability.

CERISE was lifted into orbit during the mission ‘Ariane 40 | Helios 1A’, on board a Ariane 40 space rocket.

The launch took place on July 7, 1995, 4:23 p.m. from Ariane Launch Area 2.

For more information about the launch, click the button.

Launch to space Ariane 40 | Helios 1A
Ariane 40 | Helios 1A

Agency: N/A

Status: Launch Successful

Launch date: July 7, 1995, 4:23 p.m. UTC

Rocket: Ariane 40

Launch pad: Ariane Launch Area 2

Location: Guiana Space Centre, French Guiana

...

Latest news about this satellite

There are no fresh news available about this satellite. Check back as we update our databases every day.


Newsletter sign-up

Weekly statistics, charts and insights to help you stay on top of the space industry.